Location: Unspecified
(45.3712°N, 0.6436°E)
Time: 03:30:28
(UTC+01:00)

ISS - Visible Passes

Search period start: 24 March 2019 00:00
Search period end: 03 April 2019 01:00
Orbit: 408 x 411 km, 51.6° (Epoch: 23 March)

Date Brightness Start Highest point End Pass type
(mag) Time Alt. Az. Time Alt. Az. Time Alt. Az.
24 Mar -2.9 21:06:03 10° W 21:09:16 46° NNW 21:09:56 39° NNE visible
25 Mar -3.5 20:15:16 10° WSW 20:18:33 67° NNW 20:21:39 11° ENE visible
25 Mar -1.3 21:52:38 10° WNW 21:54:25 22° NW 21:54:25 22° NW visible
26 Mar -2.2 21:01:43 10° WNW 21:04:43 31° NNW 21:06:00 23° NNE visible
27 Mar -2.6 20:10:46 10° W 20:13:54 39° NNW 20:17:03 10° NE visible
27 Mar -1.5 21:48:11 10° WNW 21:50:14 24° NNW 21:50:14 24° NNW visible
28 Mar -2.0 20:57:18 10° WNW 21:00:11 26° N 21:01:38 19° NE visible
28 Mar -0.2 22:34:13 10° NW 22:34:24 11° NW 22:34:24 11° NW visible
29 Mar -2.1 20:06:22 10° WNW 20:09:19 29° N 20:12:16 10° NE visible
29 Mar -1.9 21:43:30 10° NW 21:45:44 27° NNW 21:45:44 27° NNW visible
30 Mar -2.1 20:52:44 10° NW 20:55:38 27° N 20:57:03 20° NE visible
30 Mar -0.5 22:29:20 10° WNW 22:29:48 13° NW 22:29:48 13° NW visible
31 Mar -2.0 21:01:51 10° WNW 21:04:44 26° N 21:07:35 10° ENE visible
31 Mar -2.4 22:38:39 10° NW 22:41:05 36° NNW 22:41:05 36° NNW visible
01 Apr -2.6 21:47:55 10° NW 21:50:59 34° NNE 21:52:22 23° ENE visible
01 Apr -0.7 23:24:28 10° WNW 23:25:07 15° WNW 23:25:07 15° WNW visible
02 Apr -2.3 20:57:08 10° NW 21:00:05 29° N 21:03:02 10° ENE visible
02 Apr -3.2 22:33:42 10° WNW 22:36:24 55° NW 22:36:24 55° NW visible
